CDT,Max TemperatureF,Mean TemperatureF,Min TemperatureF,Max Dew PointF,MeanDew PointF,Min DewpointF,Max Humidity, Mean Humidity, Min Humidity, Max Sea Level PressureIn, Mean Sea Level PressureIn, Min Sea Level PressureIn, Max VisibilityMiles, Mean VisibilityMiles, Min VisibilityMiles, Max Wind SpeedMPH, Mean Wind SpeedMPH, Max Gust SpeedMPH,PrecipitationIn, CloudCover, Events, WindDirDegrees
2013-6-1,73,65,57,63,56,51,93,72,53,30.05,29.90,29.70,10,10,10,20,8,25,0.02,2,Rain,341
2013-6-2,72,60,48,53,51,48,97,72,47,30.13,30.08,30.01,10,10,10,15,7,21,0.00,0,,10
2013-6-3,80,66,53,64,58,50,93,75,48,30.03,29.93,29.81,10,10,10,16,9,24,0.00,0,,140
2013-6-4,82,74,66,69,66,64,96,79,67,29.94,29.86,29.66,10,10,8,28,12,44,0.01,4,Rain,140
2013-6-5,78,70,60,68,65,59,100,88,68,30.00,29.93,29.86,10,8,0,31,9,43,0.96,5,Fog-Rain-Thunderstorm,345
2013-6-6,78,67,57,59,56,52,97,73,44,30.01,29.98,29.94,10,10,10,16,6,25,0.00,1,,350
2013-6-7,80,66,53,60,56,52,97,70,43,30.03,29.97,29.90,10,10,10,8,3,,0.01,1,,62
2013-6-8,81,71,61,66,61,57,96,74,50,29.93,29.85,29.74,10,9,1,22,9,32,0.78,3,Rain-Thunderstorm,160
2013-6-9,87,72,59,66,61,53,100,70,35,29.91,29.86,29.81,10,10,7,14,4,,0.00,1,,322
2013-6-10,98,82,66,71,66,60,87,64,35,29.88,29.83,29.78,10,10,10,17,6,28,0.00,1,,184
2013-6-11,96,84,71,70,63,53,76,52,23,29.90,29.84,29.78,10,10,10,26,15,39,0.00,0,,193
2013-6-12,100,88,75,70,68,63,79,56,29,29.92,29.83,29.81,10,10,10,25,15,36,0.00,0,,206
2013-6-13,88,77,66,71,64,58,87,62,51,30.06,29.98,29.93,10,10,10,15,8,20,0.00,0,,76
2013-6-14,97,84,71,74,69,67,87,64,39,29.96,29.91,29.84,10,10,10,20,10,26,0.00,0,,158
2013-6-15,86,80,72,72,70,68,97,75,57,29.99,29.93,29.87,10,10,2,17,9,31,0.16,2,Rain-Thunderstorm,183
2013-6-16,90,80,71,73,71,67,100,84,53,30.02,29.93,29.87,10,8,4,15,7,28,0.21,2,Rain-Thunderstorm,150
2013-6-17,82,74,66,68,66,64,100,85,58,30.03,29.94,29.86,10,9,1,32,7,43,0.59,5,Rain-Thunderstorm,137
2013-6-18,88,74,62,69,64,62,100,82,44,30.05,30.01,29.94,10,7,0,13,2,18,0.00,1,Fog,123
2013-6-19,86,76,69,69,67,64,93,73,54,30.00,29.95,29.90,10,10,10,18,7,28,0.00,1,,151
2013-6-20,91,82,72,74,72,68,91,73,55,29.94,29.90,29.85,10,10,10,28,14,36,0.00,0,,158
2013-6-21,93,85,77,74,71,69,76,64,47,29.95,29.91,29.87,10,10,10,24,17,36,0.00,0,,169
2013-6-22,91,83,75,69,67,65,76,60,42,29.94,29.89,29.82,10,10,10,26,16,36,0.00,0,,164
2013-6-23,93,84,77,70,68,65,74,60,41,29.88,29.84,29.80,10,10,10,24,17,38,0.00,0,,167
2013-6-24,91,83,75,70,68,66,76,63,47,29.91,29.87,29.80,10,10,10,24,15,33,0.00,0,,165
2013-6-25,91,83,75,73,71,68,89,68,53,29.90,29.79,29.72,10,10,8,26,16,38,0.07,1,Rain-Thunderstorm,170
2013-6-26,98,86,75,76,71,68,84,63,43,29.89,29.82,29.76,10,10,10,13,7,16,0.00,0,,157
2013-6-27,100,84,69,76,72,61,100,74,46,30.00,29.90,29.81,10,9,2,48,8,63,0.19,2,Rain-Thunderstorm,188
2013-6-28,95,82,69,71,66,60,100,61,32,30.06,29.94,29.87,10,10,10,17,10,23,0.00,0,,356
2013-6-29,91,78,66,63,57,51,90,52,30,29.97,29.91,29.84,10,10,8,20,7,30,0.00,0,,343
2013-6-30,84,72,59,60,55,51,87,55,34,30.03,29.98,29.92,10,10,7,18,10,26,0.00,0,,11